This is the latest recevied weather packets stored in our database for station/object DJ4CK-1. If no packets are shown the sender has not sent any weather packets the latest 1 day(s).
| Time | Temp. | Humidity | Pressure | Rain* | Wind** | Luminosity | Snow |
|---|---|---|---|---|---|---|---|
| 1778071204 | 19.44° C | 47% | 1005.6 hPa | 0 mm | - | - | - |
| 1778071144 | 19.44° C | 46% | 1005.7 hPa | 0 mm | - | - | - |
| 1778071023 | 19.44° C | 45% | 1005.7 hPa | 0 mm | - | - | - |
| 1778070844 | 19.44° C | 44% | 1005.8 hPa | 0 mm | - | - | - |
| 1778070784 | 19.44° C | 46% | 1005.8 hPa | 0 mm | - | - | - |
| 1778070724 | 19.44° C | 44% | 1005.8 hPa | 0 mm | - | - | - |
| 1778070363 | 19.44° C | 48% | 1006 hPa | 0 mm | - | - | - |
| 1778070124 | 18.89° C | 46% | 1006 hPa | 0 mm | - | - | - |
| 1778069944 | 18.89° C | 46% | 1006 hPa | 0 mm | - | - | - |
| 1778069883 | 18.89° C | 46% | 1006 hPa | 0 mm | - | - | - |
| 1778069704 | 19.44° C | 46% | 1006.1 hPa | 0 mm | - | - | - |
| 1778069644 | 19.44° C | 46% | 1006.1 hPa | 0 mm | - | - | - |
| 1778069344 | 19.44° C | 48% | 1006 hPa | 0 mm | - | - | - |
| 1778069283 | 18.89° C | 47% | 1006.1 hPa | 0 mm | - | - | - |
| 1778069104 | 19.44° C | 47% | 1006.1 hPa | 0 mm | - | - | - |
| 1778069044 | 19.44° C | 47% | 1006.1 hPa | 0 mm | - | - | - |
| 1778068984 | 19.44° C | 47% | 1006.1 hPa | 0 mm | - | - | - |
| 1778068923 | 19.44° C | 47% | 1006.1 hPa | 0 mm | - | - | - |
| 1778068684 | 19.44° C | 47% | 1006.1 hPa | 0 mm | - | - | - |
| 1778068624 | 19.44° C | 47% | 1006.1 hPa | 0 mm | - | - | - |
| 1778068564 | 19.44° C | 47% | 1006.2 hPa | 0 mm | - | - | - |
| 1778068264 | 17.78° C | 50% | 1006.2 hPa | 0 mm | - | - | - |
| 1778068203 | 18.33° C | 50% | 1006.4 hPa | 0 mm | - | - | - |
| 1778067964 | 18.89° C | 51% | 1006.4 hPa | 0 mm | - | - | - |
| 1778067724 | 18.89° C | 48% | 1006.4 hPa | 0 mm | - | - | - |
* Rain latest hour (hover to see other rain measurements)
** Current wind speed in m/s (hover to see current wind gust speed)